Regional Weather Roundup
Issued by NWS

Home | Current Version | Previous Version | Text Only | Print | Product List | Glossary Off
Versions: 1 2 3 4 5 6 7 8 9 10 11 12 13 14 15 16 17 18 19 20 21 22 23 24 25 26 27 28 29 30 31 32 33 34 35 36 37 38 39 40 41 42 43 44 45 46 47 48 49

000
ASUS43 KDMX 181907
RWRIA

WEATHER ROUNDUP FOR IOWA
NATIONAL WEATHER SERVICE DES MOINES IA
200 PM CDT THU SEP 18 2014

NOTE: "FAIR" INDICATES FEW OR NO CLOUDS BELOW 12,000 FEET WITH NO
SIGNIFICANT WEATHER AND/OR OBSTRUCTIONS TO VISIBILITY.

* - THESE STATIONS ARE NOT NWS STATIONS...THUS NOT UNDER NWS
QUALITY CONTROL.  THEY ALSO DO NOT REPORT WEATHER SUCH
AS PRECIPITATION OR FOG.

IAZ001>003-012>014-020>022-031>034-043>046-182000-
   NORTHWEST IOWA

CITY           SKY/WX    TMP DP  RH WIND       PRES   REMARKS
CARROLL *      SUNNY     70  54  56 SE10      30.04F
CHEROKEE *     SUNNY     73  54  49 S13       30.02F
DENISON *      SUNNY     72  57  60 SE9       30.01F
LE MARS *      SUNNY     73  55  53 SE13      30.01F
ORANGE CITY *  SUNNY     75  52  43 S15       30.01F
SHELDON *      SUNNY     73  55  53 SE14G21   30.01F
SIOUX CITY     SUNNY     74  57  55 SE9       30.01F
SPENCER        SUNNY     72  55  55 SE12      30.03F
STORM LAKE *   SUNNY     70  57  64 SE13G18   30.04F
$$

IAZ055>058-069>071-079>083-090>094-182000-
   SOUTHWEST IOWA

CITY           SKY/WX    TMP DP  RH WIND       PRES   REMARKS
ATLANTIC *     SUNNY     72  55  56 SE8G15    30.03F
AUDUBON *      SUNNY     72  54  53 S7        30.05F
CLARINDA *     MOSUNNY   68  59  73 S8G15     30.05F
COUNCIL BLFS * SUNNY     73  59  60 SE12      30.00F
CRESTON *      SUNNY     70  54  56 SE8G14    30.06F
HARLAN  *      SUNNY     72  57  60 SE9G15    30.06F
LAMONI         SUNNY     67  55  65 SE6       30.06F HAZE
SHENANDOAH *   MOSUNNY   72  59  64 SE13      30.04S
$$

IAZ047>049-059>061-072>074-084-182000-
   CENTRAL IOWA

CITY           SKY/WX    TMP DP  RH WIND       PRES   REMARKS
AMES           SUNNY     71  53  52 SE9       30.06F
ANKENY *       SUNNY     70  55  60 S13       30.06F
CHARITON *     SUNNY     70  52  52 SE9       30.06F
DES MOINES     MOSUNNY   71  53  52 SE12      30.05F
GRINNELL*      SUNNY     72  54  53 SE13      30.08F
KNOXVILLE *    SUNNY     70  52  52 S13       30.06F
MARSHALLTOWN   MOSUNNY   71  54  54 SE14      30.06F
PELLA *        SUNNY     72  54  53 S12       30.08F
PERRY *          N/A     70  54  56 SE8G16    30.06F
$$

IAZ004>006-015-016-023>025-035-036-182000-
   NORTH CENTRAL IOWA

CITY           SKY/WX    TMP DP  RH WIND       PRES   REMARKS
ALGONA *       SUNNY     72  50  46 S9G17     30.05F
CLARION *        N/A     73  46  38 S9G18     30.06F
ESTHERVILLE    SUNNY     71  53  52 SE14G22   30.04F
FORT DODGE *   SUNNY     72  52  49 S9        30.07S
MASON CITY     SUNNY     72  51  47 S9G17     30.08F
FOREST CITY *  SUNNY     72  52  49 SE9G16    30.06F
IOWA FALLS *     N/A     72  52  49 SE13      30.07F
$$

IAZ007>011-017>019-026>030-037>042-050>054-066-182000-
   NORTHEAST IOWA

CITY           SKY/WX    TMP DP  RH WIND       PRES   REMARKS
CEDAR RAPIDS   MOSUNNY   70  54  56 E7        30.08F
CHARLES CITY * SUNNY     72  52  49 S8G15     30.08F
CLINTON *      MOSUNNY   72  52  49 CALM      30.12F
DECORAH *      PTSUNNY   68  55  64 SE8       30.09F
DUBUQUE        MOSUNNY   68  53  58 S6        30.12F
MONTICELLO *   PTSUNNY   72  54  53 VRB6      30.09F
OELWEIN *      MOSUNNY   72  52  49 SE9G17    30.09F
WATERLOO       SUNNY     71  52  50 S8        30.07F
$$

IAZ064-065-067-068-078-182000-
   EAST CENTRAL IOWA

CITY           SKY/WX    TMP DP  RH WIND       PRES   REMARKS
DAVENPORT      SUNNY     71  49  45 E9        30.09F
IOWA CITY      SUNNY     71  55  56 SE5       30.09F
MT. PLEASANT * SUNNY     75  50  41 SE8       30.07F
MUSCATINE *    SUNNY     75  50  41 E9G16     30.08F
QUAD CITIES    SUNNY     73  52  47 SE10      30.08F
$$

IAZ062-063-075>077-085>089-095>099-182000-
   SOUTHEAST IOWA

CITY           SKY/WX    TMP DP  RH WIND       PRES   REMARKS
BURLINGTON     LGT RAIN  73  53  49 SE9       30.06F
FAIRFIELD *    SUNNY     72  52  49 SE13      30.07F
FORT MADISON * SUNNY     75  52  43 E7        30.08S
KEOKUK *       SUNNY     73  55  53 SE9       30.06F
OSKALOOSA *      N/A     72  55  56 S9        30.07F
CENTERVILLE *  MOSUNNY   70  57  64 S6        30.08F
OTTUMWA        SUNNY     70  53  54 SE10      30.07S
WASHINGTON *   SUNNY     73  52  46 SE13      30.07F
$$

ABBREVIATIONS USED IN REMARKS
   TC - TEMPERATURES IN CELSIUS
  WCI - WIND CHILL INDEX
   HX - HEAT INDEX
  VSB - VISIBILITY
$$



USA.gov is the U.S. government's official web portal to all federal, state and local government web resources and services.